Location: Unspecified
(0.0000°N, 0.0000°E)
Time: 16:58:48
(UTC+00:00)

HO-68 - Pass Details

Date: 11 June 2023
Orbit: 1193 x 1204 km, 100.3° (Epoch: 28 September)

Event Time Altitude Azimuth Distance (km) Brightness Sun altitude
Rises 02:42:36 0° 20° (NNE) 4,087 ? -44.2°
Reaches altitude 10° 02:45:14 10° 23° (NNE) 3,123 ? -43.6°
Enters shadow 02:49:16 37° 35° (NE) 1,779 ? -42.8°
